Location: *
(48.4333°N, 5.0333°W)
Time: 02:09:03
(UTC+00:00)

SJ-6B - Pass Details

Date: 23 June 2021
Orbit: 509 x 581 km, 97.6° (Epoch: 02 August)

Event Time Altitude Azimuth Distance (km) Brightness Sun altitude
Rises 21:05:54 0° 203° (SSW) 2,769 6.2 -5.8°
Reaches altitude 10° 21:08:34 10° 222° (SW) 1,866 5.5 -6.1°
Maximum altitude 21:11:29 19° 268° (W) 1,377 5.4 -6.4°
Drops below altitude 10° 21:14:22 10° 314° (NW) 1,850 7.3 -6.8°
Sets 21:17:00 0° 333° (NNW) 2,736 8.2 -7.0°
